User: anonymous   Login
Location: Unspecified
(0.0000°N, 0.0000°E)
Time: 17:52:47
(UTC+00:00)
Language:

Landsat 7 - Orbit

View from above orbital plane
View from above orbital plane
View from above satellite
View from above satellite

Ground track
Ground track

The orbit data is extracted from the following two-line orbital elements,

1 25682U 99020A   14304.19139347 -.00003139  00000-0 -68743-3 0  7540
2 25682 098.2245 012.0354 0001455 060.5286 299.6022 14.57086712826795
Epoch (UTC): 31 October 2014 04:35:36
Eccentricity: 0.0001455
inclination: 98.2245°
perigee height: 701 km
apogee height: 703 km
right ascension of ascending node: 12.0354°
argument of perigee: 60.5286°
revolutions per day: 14.57086712
mean anomaly at epoch: 299.6022°
orbit number at epoch: 82679

The dashed part of the orbit path shows where the satellite is in the earth's shadow,  

DLR